Location: Treviso
(45.6669°N, 12.2430°E)
Time: 11:50:32
(UTC+02:00)

ISS - Visible Passes

Search period start: 30 September 2022 00:00
Search period end: 10 October 2022 00:00
Orbit: 414 x 417 km, 51.6° (Epoch: 30 September)

Date Brightness Start Highest point End Pass type
(mag) Time Alt. Az. Time Alt. Az. Time Alt. Az.
30 Sep -3.3 19:44:13 10° NW 19:47:29 47° NNE 19:49:52 17° E visible
30 Sep -1.5 21:21:03 10° WNW 21:22:45 23° W 21:22:45 23° W visible
01 Oct -3.4 20:32:08 10° WNW 20:35:27 56° SSW 20:35:58 48° S visible
02 Oct -3.8 19:43:17 10° WNW 19:46:39 89° SSW 19:49:15 16° ESE visible
02 Oct -0.9 21:21:00 10° W 21:22:08 14° WSW 21:22:08 14° WSW visible
03 Oct -1.8 20:31:32 10° W 20:34:16 23° SW 20:35:29 19° S visible
04 Oct -2.5 19:42:23 10° WNW 19:45:32 38° SW 19:48:39 10° SSE visible
06 Oct -1.0 19:41:57 10° W 19:44:07 16° SW 19:46:15 10° S visible
